Temperature
14 14 14 13 13 13 13 13 13 13 13 12 12 12 12 12 12 11 11 11 11 10 10 9 9 9 9 8 8 8 8 8 8 8 8 8 8 8 8 8 8 8 8
13 13 13 13 13 13 13 13 13 12 12 12 12 12 12 11 11 11 11 11 10 10 10 9 9 9 8 8 8 8 8 8 8 8 7 7 7 7 7 7 7 7 7
13 13 13 13 13 13 13 12 12 12 12 12 12 11 11 11 11 11 10 10 10 10 10 9 9 8 8 8 8 8 7 7 7 7 7 7 7 7 7 7 7 7 7
13 12 12 12 12 12 12 12 12 12 12 12 11 11 11 11 11 10 10 10 10 9 9 9 9 8 8 8 7 7 7 7 7 7 7 7 7 7 7 7 7 7 7
12 12 12 12 12 12 12 12 12 11 11 11 11 11 11 11 10 10 10 9 9 9 9 8 8 8 8 8 7 7 7 6 6 6 6 6 6 6 6 7 6 6 6
12 12 12 12 12 12 11 11 11 11 11 11 11 10 10 10 10 10 9 9 9 9 8 8 8 8 7 7 7 7 6 6 6 6 6 6 6 6 6 6 6 6 6
12 12 12 11 11 11 11 11 11 11 11 10 10 10 10 10 9 9 9 9 8 8 8 8 7 7 7 7 7 6 6 6 6 6 6 6 6 6 6 6 6 6 6
11 11 11 11 11 11 11 11 11 10 10 10 10 9 9 9 9 9 9 8 8 8 8 7 7 7 7 6 6 6 6 6 5 5 5 5 5 5 5 5 5 5 5
11 11 11 11 11 11 11 10 10 10 10 10 9 9 9 9 8 8 8 8 8 8 7 7 7 7 6 6 6 6 6 5 5 5 5 5 5 5 5 5 5 5 5
10 10 10 10 10 10 10 10 10 10 9 9 9 9 8 8 8 8 8 8 7 7 7 7 6 6 6 6 6 6 5 5 5 5 5 5 5 5 5 5 4 4 4
10 10 10 10 10 10 10 10 9 9 9 9 9 8 8 8 7 7 7 7 7 7 7 6 6 6 6 5 5 5 5 5 5 4 4 4 4 4 4 4 4 4 4
9 9 9 9 9 9 9 9 9 9 8 8 8 8 8 7 7 6 6 7 7 7 7 6 6 5 5 5 5 5 4 4 4 4 4 4 4 4 4 4 3 3 3
9 9 9 9 9 9 9 8 8 8 8 8 8 7 7 7 6 6 6 6 5 6 6 6 5 5 5 5 4 4 4 4 4 4 4 4 3 3 3 3 3 3 3
9 9 9 9 9 8 8 8 8 8 8 8 7 7 7 6 6 5 5 5 4 5 5 5 5 5 5 4 4 4 4 4 4 3 3 3 3 3 3 3 3 3 3
8 8 8 8 8 8 8 8 7 7 7 7 7 6 6 6 5 5 5 4 4 3 4 5 4 4 4 4 4 4 4 4 3 3 3 3 3 3 3 2 2 2 2
7 8 7 8 8 8 7 7 7 7 7 6 6 6 6 5 5 5 4 4 4 3 3 4 4 4 4 4 3 3 3 3 3 3 3 3 3 2 2 2 2 2 2
7 7 7 7 7 7 7 6 6 6 6 6 6 5 5 5 5 4 4 4 3 3 3 3 3 3 3 3 3 3 3 3 3 3 2 2 2 2 2 2 1 1 1
6 6 6 6 6 6 6 6 6 6 6 5 5 5 5 5 4 4 4 3 3 3 3 3 3 3 3 3 3 3 2 2 2 2 2 2 2 2 2 1 1 1 1
6 6 6 6 6 6 6 5 5 5 5 5 5 4 4 4 4 3 3 3 3 3 2 2 2 3 2 2 2 2 2 2 2 1 1 1 1 1 1 1 1 1 1
5 5 5 5 5 5 5 5 5 5 4 4 4 4 4 3 3 3 3 3 2 2 2 2 2 2 2 2 2 1 2 2 1 1 1 1 1 1 1 1 1 1 1
4 4 4 5 4 4 4 4 4 4 4 4 4 3 3 3 3 2 2 2 2 2 2 2 2 1 1 1 1 1 1 1 1 1 1 1 1 1 1 1 1 0 0
4 4 4 4 4 4 4 3 3 3 3 3 3 3 3 3 2 2 2 2 2 1 1 1 1 1 1 1 0 0 -0 -0 -0 0 -0 0 0 0 0 0 0 0 -0
3 3 3 3 3 3 3 3 3 3 3 3 3 2 2 2 2 2 2 2 1 1 1 1 1 1 0 0 -0 -0 -0 -1 -1 -1 -1 -0 0 -0 -0 -0 -0 -0 -0
2 2 2 2 2 2 2 2 2 2 2 2 2 2 2 2 2 1 1 1 1 1 1 1 0 0 0 -0 -1 -1 -1 -1 -1 -1 -1 -1 -1 -0 -0 -0 -0 -1 -1
1 1 1 2 2 1 1 1 1 1 2 2 2 1 1 1 1 1 1 1 1 1 1 0 0 -0 -0 -1 -1 -1 -1 -1 -1 -1 -1 -2 -2 -1 -1 -0 -1 -1 -1
1 1 1 1 1 1 1 1 1 1 1 1 1 1 1 1 1 0 0 0 0 0 0 0 0 -0 -0 -1 -1 -1 -1 -2 -2 -2 -2 -2 -2 -3 -2 -1 -1 -1 -1
Wind_Speed
6 6 6 6 5 6 6 5 5 5 5 5 6 6 5 5 5 5 4 4 4 4 5 5 6 6 7 7 8 8 9 10 10 11 11 12 12 13 13 13 14 14 15
8 7 6 5 5 6 6 6 5 4 4 4 4 4 5 5 4 4 4 4 4 4 4 5 5 6 7 8 8 9 9 10 10 11 12 12 13 13 14 14 14 15 15
10 8 5 4 5 7 7 6 5 5 3 3 3 2 3 4 4 3 3 3 3 4 4 4 5 6 7 8 9 9 10 10 11 12 12 13 13 14 14 15 15 16 16
12 9 6 4 6 7 6 4 3 3 2 2 1 0 2 3 3 3 3 2 3 3 4 5 5 6 8 8 9 10 10 11 12 12 13 13 14 14 15 15 16 17 17
12 10 6 6 7 5 3 3 2 2 2 1 1 1 0 1 2 2 2 1 1 2 2 4 6 6 7 9 10 10 11 12 12 13 13 14 14 15 16 16 17 17 17
11 10 7 6 7 4 2 2 3 2 2 1 1 1 1 0 1 1 1 1 1 1 2 3 4 5 7 9 10 11 12 13 13 13 14 14 15 16 16 17 17 18 18
10 9 7 6 5 4 4 3 2 2 1 1 2 2 2 2 1 0 0 0 1 1 2 3 4 4 5 8 9 11 13 13 14 14 14 15 16 16 17 17 18 18 18
8 8 7 6 5 4 4 3 3 2 1 1 2 1 1 3 2 1 1 1 1 2 3 4 4 5 6 6 8 11 13 14 14 15 15 16 16 17 18 18 18 18 18
8 7 8 7 6 5 4 4 4 4 3 1 1 2 2 3 3 2 2 1 2 2 3 4 5 6 6 6 8 10 13 14 15 16 16 16 17 18 18 18 19 19 19
7 7 7 7 6 5 4 4 3 2 4 2 1 0 1 2 1 2 3 2 2 3 3 4 5 5 6 7 9 11 13 14 15 16 16 17 17 18 19 19 19 20 20
4 6 7 6 5 4 4 4 3 3 3 3 2 1 1 0 1 1 3 3 3 3 3 4 4 4 6 7 8 11 13 14 15 16 16 17 17 18 19 19 19 20 20
2 4 5 6 5 4 4 4 4 4 3 3 2 2 2 2 1 2 2 3 4 4 3 3 3 4 6 7 10 12 13 14 15 16 16 16 17 18 18 19 19 20 21
3 4 4 4 4 4 4 4 4 4 4 3 3 2 2 2 1 1 2 2 3 3 3 3 3 4 6 8 10 13 13 14 15 15 16 16 16 17 17 18 19 20 20
3 4 4 5 4 5 5 4 3 3 3 3 3 3 2 2 1 1 2 1 2 3 3 4 3 4 6 9 10 12 11 14 15 15 15 15 15 16 17 18 19 19 19
3 4 4 4 4 5 5 4 3 3 3 3 3 3 2 2 1 1 1 2 2 3 4 3 3 4 7 8 10 11 11 14 14 14 15 15 15 15 16 17 18 19 19
3 4 4 4 3 4 4 4 3 3 3 3 2 2 2 1 1 1 1 1 2 2 4 3 4 6 8 8 11 11 12 14 14 14 15 15 15 15 16 17 18 18 19
3 4 4 4 4 4 4 4 4 4 4 3 2 3 3 2 2 1 1 1 2 2 4 5 4 5 5 6 9 10 11 10 11 14 15 15 16 16 16 17 17 18 18
3 3 3 4 4 4 4 5 5 4 4 4 3 3 3 2 2 2 2 2 2 2 3 6 5 5 6 6 7 7 9 10 10 13 15 16 16 16 17 17 17 18 18
3 3 3 3 4 4 4 4 4 4 4 4 3 4 4 3 3 2 2 2 2 2 2 3 5 5 5 5 6 7 7 7 9 11 14 14 15 16 17 17 17 18 17
2 3 3 3 3 4 4 3 3 3 3 2 2 3 3 3 4 3 3 2 2 2 2 3 4 5 5 5 5 6 7 6 7 8 11 12 14 16 16 17 17 17 17
2 2 2 2 2 2 3 3 3 3 3 2 1 1 2 2 2 2 2 2 1 1 2 3 4 5 5 6 5 5 7 8 7 4 6 8 9 9 11 14 15 16 17
2 2 3 2 2 1 3 4 4 3 2 2 2 1 1 1 1 2 3 3 2 2 3 3 4 5 6 6 5 6 6 7 6 4 6 9 7 7 8 10 14 16 17
2 2 2 2 1 1 2 2 3 3 2 2 2 1 1 1 1 1 2 3 3 4 3 3 4 5 5 5 5 6 6 7 7 7 7 7 6 7 8 11 16 16 16
2 2 2 2 1 0 1 2 2 2 2 1 2 2 1 1 1 0 0 1 2 3 4 3 3 4 4 4 4 4 6 6 6 5 4 5 6 7 9 10 14 15 16
1 1 2 2 2 0 1 1 2 1 1 0 0 0 1 1 2 2 0 1 3 3 5 6 6 6 7 7 6 4 5 5 6 5 3 3 4 6 6 6 9 14 16
1 1 2 2 1 0 0 1 2 1 1 0 0 0 1 1 2 1 0 1 3 4 4 4 5 6 6 6 7 4 3 4 5 4 3 4 4 5 5 4 5 10 12
Wind_Direction
140 135 133 130 123 121 116 110 107 100 92 95 112 120 122 121 109 95 82 73 58 40 32 26 19 15 11 7 5 2 358 354 352 350 347 344 341 337 333 332 330 327 327
148 144 138 135 132 132 128 122 115 106 96 97 101 121 129 127 120 106 87 71 51 34 22 16 9 4 2 0 358 356 352 349 347 344 341 338 336 333 330 328 327 326 324
153 148 141 140 141 137 126 117 107 97 86 82 78 119 138 139 131 120 100 84 60 37 17 6 1 358 353 351 350 348 346 343 341 338 336 333 331 330 328 326 325 323 321
155 148 142 146 143 134 127 121 115 98 88 92 96 90 136 142 142 132 115 93 70 40 17 5 355 348 344 342 341 340 341 338 335 334 332 331 329 327 326 324 323 321 319
156 149 144 145 141 128 121 133 119 120 114 94 125 117 125 145 158 144 128 90 56 37 16 360 352 342 339 337 336 335 335 334 332 331 329 328 326 325 323 322 321 319 318
155 147 142 142 140 132 129 131 122 102 118 126 95 55 0 308 155 152 161 101 11 1 353 348 343 332 331 333 333 332 330 329 328 326 326 326 324 323 321 320 319 319 318
154 149 147 145 145 150 154 151 137 117 79 77 73 15 349 336 313 241 155 142 312 337 342 328 328 324 324 328 330 329 326 326 324 324 324 323 322 322 321 321 320 319 319
155 154 155 159 158 152 146 149 138 134 109 93 114 99 343 325 314 305 268 246 291 335 325 313 312 311 313 319 322 324 323 323 322 322 321 321 320 320 320 321 321 320 320
157 155 155 156 157 157 164 167 160 152 164 156 97 138 155 235 289 299 275 278 305 311 310 307 305 306 309 317 314 315 319 320 319 319 319 319 320 320 320 321 321 320 320
158 155 152 153 157 159 166 173 168 162 158 173 192 137 163 166 177 290 301 299 302 292 293 307 306 304 309 312 314 316 319 317 315 317 319 319 319 319 320 321 321 321 321
160 157 155 152 159 161 168 165 166 164 168 172 173 159 137 81 136 195 275 301 309 283 277 282 285 294 305 309 309 311 319 315 314 316 317 317 317 318 319 320 321 321 320
173 167 163 162 163 164 172 175 171 169 174 168 166 165 163 172 200 192 242 284 290 286 283 275 278 286 299 309 310 314 315 314 315 316 315 315 315 317 318 319 320 320 319
187 196 181 175 171 173 170 166 170 179 179 171 180 191 191 206 190 185 218 267 284 290 289 278 270 288 304 312 312 315 313 313 314 315 315 316 316 316 317 318 319 319 319
199 192 186 180 176 173 169 164 172 183 174 181 187 187 192 214 205 194 199 227 295 292 282 276 287 287 310 312 312 319 315 313 314 314 316 317 317 317 317 318 318 318 319
185 180 182 182 176 172 170 167 180 184 173 185 196 196 201 222 220 212 200 203 218 279 288 279 294 303 316 313 315 320 314 316 316 315 318 318 317 318 318 317 318 319 319
179 176 183 183 177 174 171 171 177 175 170 189 191 185 207 232 241 229 232 242 220 230 268 285 288 304 314 318 320 320 314 319 319 319 320 318 318 319 319 319 320 322 321
177 189 186 179 176 179 178 176 182 173 176 189 187 190 214 218 228 249 256 249 250 245 272 295 297 309 317 320 321 320 317 315 315 321 323 323 322 320 319 319 321 322 322
181 181 178 178 177 180 182 185 185 179 182 190 197 201 219 219 229 246 252 259 261 260 268 295 307 315 314 314 318 320 322 319 314 319 323 323 323 324 322 321 323 322 322
175 174 170 177 181 184 185 188 185 183 189 197 201 206 219 211 229 250 256 260 269 290 287 292 303 312 311 319 321 319 317 318 320 322 325 323 324 326 326 326 325 324 325
172 179 182 177 180 187 182 176 174 173 180 194 203 211 220 216 227 240 249 256 269 294 309 305 306 312 311 317 324 324 326 327 322 326 328 325 325 326 326 327 328 329 329
159 166 160 164 167 177 171 171 168 163 170 182 202 226 236 245 261 261 276 270 267 272 301 308 309 315 319 329 327 322 322 323 315 321 325 324 323 324 325 325 328 331 332
129 138 145 152 151 155 159 158 156 162 172 178 201 243 261 273 307 315 315 316 306 287 291 291 298 307 311 316 318 322 322 327 324 329 330 318 321 317 321 324 330 334 336
125 126 134 135 140 152 135 141 138 151 166 183 198 211 254 301 345 289 329 348 341 331 313 290 291 297 303 311 320 320 319 317 306 310 320 308 316 314 321 324 330 334 338
133 134 131 122 105 92 101 100 122 132 159 181 195 194 201 257 276 296 311 336 325 320 322 316 281 291 302 307 302 299 302 311 304 302 313 304 313 312 318 320 326 335 340
116 126 125 126 122 89 77 81 84 115 140 197 223 189 179 245 295 335 10 323 321 322 336 334 329 334 336 338 342 341 338 336 322 312 322 315 313 316 310 305 324 335 338
126 120 116 122 131 132 67 62 78 111 105 350 330 319 330 320 326 6 67 291 307 312 328 338 343 343 343 339 347 348 324 323 320 309 323 331 319 330 320 303 318 334 339
Height
1537 1537 1539 1540 1540 1541 1541 1541 1542 1542 1542 1542 1542 1542 1542 1542 1541 1541 1540 1539 1538 1536 1535 1533 1532 1530 1529 1527 1525 1523 1521 1519 1517 1515 1512 1510 1508 1505 1503 1501 1498 1496 1493
1536 1537 1538 1539 1539 1540 1540 1541 1541 1541 1541 1541 1541 1541 1541 1540 1540 1540 1539 1538 1536 1535 1534 1532 1531 1529 1527 1526 1524 1522 1519 1517 1515 1513 1510 1508 1506 1503 1501 1498 1495 1493 1490
1534 1535 1536 1537 1538 1538 1539 1540 1540 1540 1540 1540 1540 1540 1539 1539 1538 1538 1537 1536 1535 1533 1532 1530 1529 1527 1525 1524 1521 1519 1517 1515 1513 1511 1508 1506 1503 1501 1498 1495 1492 1490 1487
1533 1534 1535 1536 1537 1537 1538 1538 1538 1538 1539 1538 1538 1538 1538 1537 1537 1536 1535 1534 1533 1532 1530 1529 1527 1525 1523 1521 1519 1517 1515 1513 1511 1508 1506 1503 1500 1498 1495 1492 1489 1486 1483
1531 1532 1533 1534 1535 1536 1536 1537 1537 1537 1537 1537 1536 1536 1536 1535 1535 1534 1534 1533 1531 1530 1528 1527 1525 1523 1521 1519 1517 1515 1512 1510 1508 1506 1503 1500 1498 1495 1492 1489 1486 1483 1480
1528 1530 1531 1532 1533 1534 1535 1535 1535 1535 1535 1535 1535 1534 1534 1533 1532 1532 1531 1530 1529 1528 1526 1524 1523 1521 1519 1516 1514 1512 1510 1507 1505 1503 1500 1497 1494 1491 1488 1485 1482 1479 1476
1526 1528 1529 1530 1530 1531 1532 1533 1533 1533 1533 1533 1533 1532 1531 1531 1530 1529 1529 1528 1527 1525 1523 1522 1520 1518 1516 1514 1511 1509 1507 1504 1502 1500 1497 1494 1491 1488 1485 1481 1478 1475 1472
1524 1525 1526 1527 1528 1528 1529 1530 1530 1530 1531 1530 1530 1530 1529 1529 1527 1526 1526 1525 1524 1522 1520 1519 1517 1515 1513 1511 1508 1506 1503 1501 1499 1496 1494 1491 1487 1484 1481 1477 1474 1471 1467
1521 1522 1523 1525 1525 1526 1527 1527 1527 1528 1528 1528 1528 1528 1527 1526 1525 1524 1523 1522 1521 1519 1518 1516 1514 1512 1510 1508 1505 1503 1500 1498 1495 1492 1490 1487 1483 1480 1477 1473 1470 1466 1463
1518 1519 1521 1522 1523 1524 1524 1524 1524 1525 1525 1525 1525 1525 1525 1524 1523 1521 1520 1519 1518 1517 1515 1513 1511 1509 1507 1505 1502 1500 1497 1494 1491 1489 1486 1483 1479 1476 1473 1469 1466 1462 1458
1515 1516 1517 1519 1520 1520 1521 1521 1522 1522 1522 1522 1521 1521 1521 1521 1520 1519 1517 1515 1515 1514 1512 1510 1508 1506 1504 1502 1499 1496 1493 1491 1488 1485 1482 1479 1475 1472 1469 1465 1461 1458 1454
1511 1513 1514 1515 1516 1517 1518 1518 1519 1519 1519 1519 1518 1518 1518 1518 1517 1516 1514 1512 1510 1510 1508 1507 1505 1503 1501 1498 1496 1493 1490 1487 1484 1481 1478 1475 1471 1468 1464 1461 1457 1453 1449
1507 1509 1510 1511 1513 1513 1514 1515 1515 1516 1516 1515 1515 1515 1515 1515 1514 1514 1512 1510 1508 1506 1504 1504 1502 1500 1497 1495 1492 1489 1486 1483 1480 1477 1474 1471 1467 1464 1460 1457 1453 1449 1445
1504 1506 1507 1508 1509 1510 1511 1511 1512 1512 1512 1512 1512 1512 1512 1511 1511 1510 1509 1508 1505 1503 1501 1500 1498 1496 1494 1491 1488 1485 1482 1479 1476 1473 1470 1467 1463 1460 1456 1452 1448 1444 1441
1501 1503 1504 1504 1505 1506 1507 1508 1508 1508 1509 1509 1509 1509 1509 1508 1508 1507 1506 1506 1505 1501 1498 1496 1495 1493 1490 1488 1485 1482 1478 1475 1472 1469 1466 1463 1459 1455 1452 1448 1444 1440 1436
1497 1498 1500 1501 1502 1503 1504 1504 1505 1505 1505 1505 1505 1505 1505 1505 1505 1504 1503 1503 1501 1500 1497 1494 1492 1490 1487 1485 1482 1479 1475 1472 1468 1465 1462 1458 1455 1451 1448 1444 1440 1436 1432
1493 1495 1496 1497 1498 1499 1500 1501 1501 1502 1502 1502 1502 1502 1502 1502 1502 1501 1500 1499 1498 1497 1494 1491 1490 1487 1484 1481 1478 1475 1472 1468 1464 1461 1458 1454 1450 1447 1443 1440 1436 1431 1428
1490 1491 1492 1494 1495 1496 1496 1497 1498 1498 1499 1499 1499 1499 1499 1499 1498 1498 1497 1496 1495 1494 1492 1488 1486 1483 1481 1478 1475 1471 1468 1465 1461 1457 1454 1450 1446 1443 1439 1436 1432 1428 1424
1486 1487 1489 1490 1491 1492 1492 1493 1494 1494 1495 1495 1496 1496 1496 1495 1495 1494 1493 1493 1492 1491 1489 1486 1483 1480 1478 1475 1471 1468 1465 1461 1458 1454 1450 1446 1443 1439 1435 1432 1428 1424 1420
1483 1484 1485 1486 1487 1488 1489 1490 1490 1491 1492 1492 1492 1493 1492 1492 1491 1491 1490 1489 1488 1487 1486 1483 1480 1477 1475 1472 1469 1465 1460 1457 1454 1450 1447 1443 1439 1436 1432 1428 1424 1421 1417
1480 1481 1482 1483 1484 1485 1486 1487 1487 1488 1488 1488 1489 1489 1489 1488 1488 1488 1487 1486 1485 1484 1482 1479 1477 1475 1472 1469 1465 1462 1458 1454 1450 1447 1443 1440 1436 1432 1428 1424 1421 1417 1413
1477 1478 1479 1480 1481 1482 1483 1484 1484 1485 1485 1486 1486 1486 1486 1485 1485 1484 1484 1483 1482 1481 1479 1477 1474 1472 1469 1467 1464 1460 1457 1452 1447 1445 1441 1436 1434 1429 1425 1421 1418 1414 1410
1474 1475 1476 1477 1478 1479 1480 1480 1481 1482 1482 1482 1483 1482 1482 1482 1482 1481 1480 1480 1479 1478 1477 1475 1472 1470 1467 1465 1462 1458 1455 1451 1447 1443 1438 1433 1431 1426 1423 1419 1416 1412 1408
1471 1472 1473 1474 1475 1476 1477 1478 1478 1479 1479 1479 1479 1479 1479 1479 1478 1478 1477 1476 1476 1474 1473 1471 1470 1468 1465 1463 1460 1457 1453 1449 1445 1442 1438 1432 1428 1424 1420 1417 1413 1410 1405
1468 1469 1470 1471 1472 1473 1474 1475 1476 1476 1476 1476 1476 1476 1476 1476 1475 1475 1474 1473 1472 1471 1470 1468 1467 1465 1462 1460 1457 1454 1450 1446 1441 1438 1436 1432 1426 1422 1417 1414 1411 1407 1403
1466 1467 1468 1469 1469 1470 1471 1472 1473 1473 1473 1473 1473 1473 1473 1473 1473 1472 1471 1470 1468 1467 1466 1464 1463 1461 1459 1456 1454 1451 1448 1445 1440 1436 1434 1431 1426 1422 1416 1411 1409 1405 1400